Follow iAlert.com on twitter @ialertcom
Search For Active Alerts in Your Area  
  Hi Guest:  [ Sign-up / Services ] [ Login ]

Current weather by "City, St" or "zip code"  
 

Advertise Here

Current Conditions: Doylestown, Doylestown Airport, PA

Mostly Cloudy


52.0 F

Last Updated on Nov 22 2017, 10:54 am EST
Humidity: 75%
Wind Speed: NW 10.4 mph
Barometer 29.91 in
Dewpoint: 44.1 F
Visibility: 10.00 mi
Precip: --
Heat Index: NA
Wind Chill: 48 F
Current conditions at:

Doylestown, Doylestown Airport, PA (KDYL)

Lat: 40.33 Lon: 75.122

Local Radar Image active severe weather and emergency alerts image image weather storm and storm spotter reports image weather observation monitoring service image
Local
Radar
Active
Alerts
Storm Reports Obs
Monitoring

iAlert Weather and Emergency Alert Notification Services:


ialert severe weather and emergency alerts by text message and email ialert daily weather forecast by email and text message service ialert real-time weather-observation monitoring and alert notification service ialert storm report monitoring alert notification

Observation History for Doylestown, Doylestown Airport, PA


Time Wind
(mph)
Vis
(mi)
Weather Precip (in) Temperature (F) Relative
Humidity
Wind
Chill
(°F)
Heat
Index
(°F)
Pressure
Air Dwpt altimeter
(in)
sea level
(mb)
10:54 am EST NW 10.4 10.00 Mostly Cloudy -- 52.0 44.1 75% 48 NA 29.91 1013.0
9:54 am EST NW 5.8 10.00 Mostly Cloudy -- 50.0 48.0 93% 48 NA 29.91 1012.9
8:54 am EST N 0.0 10.00 Overcast -- 48.0 46.9 96% NA NA 29.90 1012.8
7:54 am EST N 0.0 10.00 Overcast 00.05 45.0 45.0 100% NA NA 29.90 1012.9
6:54 am EST N 0.0 10.00 Rain 00.03 45.0 44.1 97% NA NA 29.91 1013.0
5:54 am EST 3.5 10.00 Overcast -- 47.0 44.1 90% NA NA 29.89 1012.5
4:54 am EST N 0.0 10.00 Mostly Cloudy -- 47.0 44.1 90% NA NA 29.90 1012.7
3:54 am EST S 3.5 10.00 A Few Clouds -- 49.0 45.0 86% NA NA 29.92 1013.2
2:54 am EST 4.6 10.00 Fair -- 50.0 44.1 80% 48 NA 29.94 1014.1
1:54 am EST SW 3.5 10.00 A Few Clouds -- 50.0 43.0 77% NA NA 29.95 1014.4
12:54 am EST S 4.6 10.00 Fair -- 50.0 42.1 74% 48 NA 29.98 1015.2
11:54 pm EST S 5.8 10.00 Fair -- 50.0 41.0 71% 48 NA 30.00 1015.9
10:54 pm EST S 4.6 10.00 Fair -- 49.0 39.0 69% 47 NA 30.01 1016.4
9:54 pm EST S 4.6 10.00 Fair -- 46.0 39.0 77% 44 NA 30.03 1017.2
8:54 pm EST N 0.0 10.00 Fair -- 47.0 39.0 74% NA NA 30.03 1017.1
7:54 pm EST SW 4.6 10.00 Fair -- 49.0 37.9 66% 47 NA 30.02 1017.1
6:54 pm EST 4.6 10.00 Fair -- 50.0 35.1 57% 48 NA 30.03 1017.3
5:54 pm EST SW 5.8 10.00 Fair -- 50.0 33.1 52% 48 NA 30.02 1017.0
4:54 pm EST N 0.0 10.00 Fair -- 51.0 30.0 45% NA NA 30.00 1016.4
3:54 pm EST 3.5 10.00 Fair -- 53.0 28.9 40% NA NA 30.01 1016.6
2:54 pm EST SW 11.5 G 18.4 10.00 Fair -- 55.0 27.0 34% 52 NA 30.02 1016.9
1:54 pm EST S 8.1 10.00 Fair -- 55.0 30.0 38% 53 NA 30.01 1016.6
12:54 pm EST 6.9 10.00 Fair -- 55.0 30.0 38% 53 NA 30.04 1017.6
11:54 am EST S 8.1 10.00 Fair -- 54.0 30.0 40% 52 NA 30.07 1018.5

Regional Weather Observation


Allentown, Lehigh Valley International Airport, PA (KABE)

Light Rain
52.0 F

Allentown Queen City Municipal Airport, PA (KXLL)

Mostly Cloudy
54.0 F

Doylestown, Doylestown Airport, PA (KDYL)

Mostly Cloudy
52.0 F

Pottstown, Pottstown Limerick Airport, PA (KPTW)

Fair
53.0 F

Philadelphia, Northeast Philadelphia Airport, PA (KPNE)

Overcast
56.0 F

Reading, Reading Regional Airport, PA (KRDG)

Fair and Breezy
53.0 F

Advertise Here